Вернуться в каталог

ARIANE 5 R/B

АктивенHEO
NORAD 40334·ROCKET BODY·🇫🇷 France

Запущен Dec 6, 2014 с Guiana Space Centre

Loading…

Ближайшие Пролёты (ближайшие 24 часа)

TLE

СвежийSource: Space-Track

Эпоха: Sep 14, 2026, 09:15 UTC

1 40334U 14078C   26257.38608976  .00004830  00000-0  73951-3 0  9996
2 40334   6.5111 304.5872 6776695 295.8053  10.8343  2.95155847109877

Отслеживайте ARIANE 5 R/B в реальном времени с AllMySat

Download on the App Store